Theta_e
293 293 294 294 294 294 294 295 298 299 302 307 309 307 306 306 307 308 310 312 315 318 323 327 328 328 328 328 328 329 330 331 332 333 333 334 335 332 326 329 332 335 338 346 348 349 349 345 344 344 346 348 344 342 344 345 344 343 344 346 345 343 342 341 341 341 341 340 340 340 340 339 338 337 337 336 335 335 334 333 333 332 331 330 329
293 293 293 293 294 294 294 295 296 298 302 304 305 305 304 303 304 305 307 310 312 316 319 323 327 328 328 328 329 329 330 330 331 332 332 333 333 333 325 326 329 335 337 340 346 347 346 349 345 347 347 347 343 346 346 345 344 344 344 344 343 344 342 342 341 341 340 340 340 340 339 338 338 337 336 335 335 334 334 333 332 332 330 330 329
292 293 293 293 293 293 293 294 295 297 300 302 303 302 302 302 303 304 305 308 310 314 317 319 323 326 327 327 328 329 329 330 330 330 331 332 332 332 331 323 326 330 333 337 341 344 346 349 349 345 347 345 344 345 343 342 344 343 344 345 344 344 342 341 339 340 340 340 339 339 338 338 337 336 336 335 334 334 333 332 331 330 329 329 328
292 292 293 292 292 292 293 293 294 296 299 300 300 300 300 301 302 304 305 306 308 311 314 317 319 323 326 327 328 328 329 329 329 329 330 330 331 331 331 329 322 325 328 335 341 343 345 344 345 344 345 346 344 344 348 347 346 344 342 344 343 345 342 341 340 340 340 339 339 338 338 337 337 336 335 335 334 333 332 331 330 330 329 328 328
292 292 292 292 291 292 292 293 294 296 298 299 299 299 299 300 301 302 303 304 305 307 310 313 316 320 324 326 327 327 329 329 329 329 329 329 329 330 330 329 329 321 321 326 335 339 341 342 341 344 344 343 345 345 345 342 344 345 344 342 343 344 343 340 339 339 340 339 338 338 337 337 336 336 335 333 333 333 332 330 330 330 329 328 328
290 290 291 290 291 291 292 292 294 295 296 297 297 297 297 298 299 300 301 301 302 304 307 308 311 315 319 324 326 327 328 328 328 328 328 328 328 329 329 329 329 328 326 320 322 329 336 337 339 342 344 344 345 345 344 342 342 343 344 341 342 345 344 342 340 340 339 339 338 337 336 336 335 335 334 334 333 332 331 330 330 329 329 328 328
289 289 289 290 289 289 290 292 293 294 295 296 296 297 297 297 298 298 299 299 300 302 304 306 308 310 312 318 323 325 326 327 327 327 327 327 327 327 328 329 328 327 327 326 317 319 326 335 340 341 341 342 342 342 344 340 341 344 342 344 344 344 344 343 340 339 338 339 337 337 335 335 334 333 333 332 331 330 329 329 329 329 329 328 328
287 288 287 286 286 286 287 289 291 292 294 295 296 296 297 297 298 298 297 297 299 300 302 303 304 306 308 310 316 321 324 325 326 327 327 328 327 327 328 328 328 327 322 327 326 321 319 325 332 337 337 338 339 342 344 344 343 346 346 345 345 344 342 341 341 340 338 337 335 335 335 334 334 333 332 331 330 330 329 329 329 328 329 328 326
286 286 285 285 285 285 286 287 288 288 290 293 294 296 296 297 297 298 297 297 297 298 299 300 302 303 305 306 309 315 322 324 325 326 327 327 327 328 327 327 326 319 326 326 327 326 321 321 325 330 330 333 338 342 342 342 344 345 345 342 340 342 342 339 340 338 336 336 335 335 334 334 333 332 332 331 330 329 328 328 329 328 327 327 327
285 285 285 285 285 285 285 285 286 286 287 289 292 295 296 297 296 297 297 296 296 296 297 298 300 302 303 304 305 309 317 323 324 321 326 326 327 327 327 327 327 326 326 326 326 327 327 323 320 323 322 326 334 339 340 341 344 345 346 344 344 343 341 339 338 337 336 335 335 334 334 333 332 332 330 330 330 329 329 328 329 328 326 327 326
284 284 284 284 284 284 284 284 285 285 285 285 287 291 294 295 296 296 297 296 296 296 297 298 300 301 302 302 303 306 310 318 322 323 324 326 326 326 328 327 326 326 326 326 326 326 326 327 326 325 326 322 330 335 338 339 339 342 344 344 343 343 340 338 337 336 335 335 335 334 333 333 332 331 330 329 329 329 329 328 327 327 328 327 327
283 283 283 283 283 283 283 283 283 283 283 283 284 287 290 293 294 295 295 296 297 297 297 297 298 300 300 301 301 303 307 312 318 323 322 324 325 326 326 327 327 327 326 326 327 326 326 326 324 327 327 325 324 328 333 335 333 338 339 341 343 343 341 339 337 336 335 335 334 334 333 331 331 330 330 329 329 328 329 328 328 328 328 327 326
283 282 282 282 282 282 281 281 282 282 282 282 283 284 286 291 294 295 295 294 295 296 296 297 297 296 298 298 299 302 305 310 316 321 322 323 325 325 325 325 326 326 326 326 326 326 326 326 326 327 327 329 327 322 325 328 327 335 340 341 341 342 341 340 338 336 335 334 333 333 331 331 331 330 329 329 329 328 328 328 327 328 328 327 326
282 281 281 281 280 280 280 280 281 281 282 282 283 284 285 288 293 294 296 294 293 295 296 297 294 293 293 294 296 298 301 306 313 319 322 323 323 324 324 324 325 326 326 326 326 326 326 327 327 326 327 328 330 330 327 326 327 331 340 341 343 343 342 341 339 337 334 334 333 332 331 331 330 330 329 329 329 328 328 328 328 329 329 328 328
281 281 281 280 280 279 279 280 280 281 281 281 282 282 284 286 291 293 293 294 294 295 295 296 293 295 296 295 291 292 298 304 312 318 321 321 322 322 323 323 324 325 325 325 325 326 326 326 326 326 326 327 329 329 329 323 326 322 330 336 340 342 343 340 338 336 335 334 333 331 331 331 330 329 330 329 329 329 328 328 329 329 328 328 329
280 280 280 280 279 279 279 280 281 281 281 281 281 282 283 286 289 292 294 292 293 293 294 295 297 295 290 292 294 294 291 294 304 313 319 319 320 320 320 321 322 323 324 324 324 325 325 325 325 325 325 326 326 327 328 330 323 316 319 327 329 338 340 340 337 335 335 333 332 331 331 330 329 328 328 328 329 329 328 328 328 329 328 328 328
280 279 280 279 279 279 280 280 279 279 280 280 281 283 284 287 289 291 292 292 291 292 293 294 296 298 294 291 289 290 290 293 295 295 305 315 317 318 317 319 320 319 319 321 324 324 324 323 324 324 323 323 323 323 324 326 328 320 324 320 324 328 331 338 337 335 334 333 332 331 330 329 328 328 329 329 329 329 329 328 328 328 328 328 328
279 279 279 280 279 279 279 278 278 279 280 280 281 283 285 287 290 292 293 294 293 292 291 293 296 297 298 297 294 290 290 292 293 289 298 303 312 316 317 318 319 317 318 318 317 319 321 322 323 322 322 322 322 322 322 321 320 325 329 327 322 324 326 330 335 334 334 335 332 331 330 329 328 329 328 329 329 329 329 328 327 328 328 327 327
278 278 278 279 278 278 278 278 278 278 279 279 279 280 282 284 287 288 290 293 293 291 291 292 294 297 298 298 296 296 296 293 289 292 289 295 304 311 315 317 317 317 317 317 316 316 317 321 321 322 321 321 321 321 322 321 315 317 317 317 321 323 324 325 327 330 333 333 333 331 330 329 329 329 329 329 329 329 329 328 328 328 327 327 328
278 278 278 278 278 278 278 278 277 278 279 279 279 280 281 283 285 286 288 290 292 293 292 293 292 293 297 296 296 297 298 297 296 292 290 288 291 299 311 314 315 316 317 316 316 316 316 317 320 321 321 321 321 321 322 321 320 319 315 316 320 322 323 324 324 323 326 329 331 332 331 331 330 330 329 329 329 329 329 329 328 328 328 328 328
278 277 277 277 278 277 277 277 277 277 279 279 279 280 280 281 281 284 287 289 291 293 294 294 294 293 293 292 294 295 295 295 294 295 292 290 290 293 299 311 312 314 315 316 316 316 316 318 319 319 318 319 320 320 321 322 322 321 313 314 318 320 322 323 322 321 321 323 328 330 331 332 331 330 330 330 329 329 329 329 329 329 329 329 329
277 277 277 277 277 277 277 276 277 277 279 278 278 278 279 280 282 284 286 288 290 291 292 295 295 295 294 293 291 292 293 293 293 292 293 293 290 291 297 304 306 309 313 314 315 316 317 317 317 318 318 319 319 320 320 320 321 321 316 313 317 319 321 321 322 321 320 321 322 324 328 329 329 330 330 330 330 330 329 329 329 329 329 328 329
276 276 276 276 276 277 276 276 277 277 278 277 277 278 279 280 281 284 286 286 287 289 291 293 295 295 293 293 293 293 291 290 290 291 292 291 292 294 297 302 308 308 311 314 314 316 317 317 316 317 318 319 319 319 319 320 312 315 311 314 316 318 320 321 320 319 319 321 321 322 324 324 326 328 330 331 330 331 330 329 328 328 328 328 329
275 275 275 275 276 275 276 276 275 276 276 277 277 278 278 278 279 282 285 286 287 288 289 291 292 293 292 293 293 293 293 293 293 293 292 291 291 290 292 297 307 310 311 313 315 315 316 316 316 316 317 318 319 319 319 319 317 308 312 312 316 317 320 320 319 318 319 319 319 320 323 323 324 324 327 329 330 330 330 328 328 329 329 329 329
274 274 274 275 275 274 274 274 274 275 276 276 276 276 276 277 277 281 284 285 286 287 288 290 292 292 291 292 293 293 293 295 295 294 294 294 293 290 292 294 296 307 309 312 311 313 316 316 316 316 316 317 318 318 318 318 317 308 310 310 314 315 317 319 318 318 318 317 317 319 321 323 323 325 327 327 329 329 329 329 328 329 330 329 331
273 274 274 274 275 275 275 274 275 275 275 275 275 275 276 277 281 283 283 284 286 287 287 289 291 293 294 292 292 292 294 295 295 295 294 293 292 291 291 293 295 303 299 309 311 310 311 315 316 316 316 316 317 318 318 318 314 305 308 314 313 313 315 318 318 318 317 317 317 317 317 318 322 323 324 327 328 329 329 329 329 330 330 330 331
274 274 275 274 274 274 274 274 274 274 274 274 275 275 276 279 279 279 280 283 285 286 286 287 290 292 293 293 292 292 293 294 295 294 295 294 293 293 292 290 291 299 302 307 310 311 310 312 315 315 315 315 316 316 317 317 311 305 305 316 316 310 312 315 318 317 316 316 316 316 316 316 319 322 322 322 325 326 328 329 329 330 329 329 328
274 274 274 274 274 274 274 274 274 274 274 274 274 275 276 276 277 277 278 282 284 284 284 285 288 292 293 293 293 292 293 294 294 295 295 295 295 295 294 293 290 290 299 302 307 308 312 310 311 314 314 314 315 315 311 311 312 304 304 317 316 313 311 314 316 316 317 316 315 315 315 315 317 318 319 319 320 320 321 323 324 323 323 324 324
274 274 274 274 274 273 273 273 273 274 274 274 275 275 275 275 275 276 278 282 283 282 283 284 287 292 292 292 292 293 293 294 295 295 295 295 296 296 296 294 294 292 295 299 304 306 308 311 307 310 314 314 314 315 314 313 308 307 314 316 316 315 310 312 315 316 316 316 315 315 314 315 316 317 317 318 318 319 321 322 322 322 323 323 324
274 274 274 273 273 274 273 273 273 273 273 273 273 273 273 274 274 276 278 280 281 282 283 284 286 290 292 292 293 293 294 294 295 295 295 296 295 296 296 297 297 294 296 299 302 307 307 311 312 309 312 312 313 313 314 313 304 308 314 315 315 315 308 309 312 314 314 314 315 315 315 314 314 314 315 316 318 319 321 320 320 321 322 322 325
274 273 273 273 273 272 272 272 272 272 273 273 273 273 274 274 275 277 278 280 280 280 282 283 285 289 291 291 292 292 293 293 294 295 295 295 295 296 296 297 297 297 296 299 301 305 309 308 310 310 311 312 313 312 313 312 306 310 315 315 315 309 305 308 309 312 313 313 314 314 314 313 314 314 314 314 316 318 320 320 319 319 321 322 324
273 273 273 272 272 272 272 272 272 272 272 272 273 273 274 274 275 276 277 278 279 279 281 283 285 288 290 290 291 291 291 292 293 293 294 294 295 295 296 296 297 298 298 298 303 303 307 310 309 309 312 312 312 312 311 311 307 304 314 314 313 303 309 312 307 309 311 312 313 313 313 313 314 314 314 314 316 317 318 318 318 318 319 320 322
273 273 273 273 273 272 272 272 272 271 271 272 272 273 273 273 273 274 274 276 277 279 281 283 285 287 289 290 290 290 291 291 292 293 293 294 294 295 296 296 297 298 299 299 302 303 304 307 309 308 311 311 310 311 309 308 306 309 309 313 311 311 312 313 312 306 309 311 312 313 313 313 313 314 314 313 314 316 316 317 318 317 317 320 322
273 272 272 272 272 272 272 271 271 271 271 271 272 272 272 272 272 273 274 276 278 280 281 281 282 284 288 290 290 291 291 291 292 292 292 293 293 294 294 295 296 298 300 300 304 302 298 300 306 308 309 312 308 309 308 305 305 305 308 310 311 312 313 313 312 311 307 310 311 312 313 313 313 314 313 313 314 315 316 316 315 315 316 318 318
272 272 272 272 272 271 271 271 271 270 271 271 271 271 271 271 271 272 274 275 275 277 278 279 281 283 285 288 290 291 291 291 292 292 293 293 293 293 294 295 296 298 301 303 305 300 300 301 305 305 306 308 308 307 307 307 306 307 307 307 309 311 311 313 313 312 307 310 311 312 312 312 313 313 312 312 313 314 314 315 314 313 314 316 316
272 272 271 271 271 271 270 270 270 270 270 271 271 271 271 271 271 271 272 272 272 274 277 279 280 282 282 285 288 289 290 289 290 291 292 293 293 293 293 294 296 297 301 305 307 303 301 300 301 304 306 307 307 308 308 307 306 306 306 306 306 309 309 310 312 311 309 310 310 311 311 312 312 312 311 311 312 313 313 313 312 312 312 312 313
271 270 270 270 269 269 269 269 269 269 269 269 269 270 270 270 270 270 271 271 272 273 275 277 280 280 282 283 287 288 289 288 288 289 290 291 292 292 292 294 295 298 301 306 305 304 303 300 300 304 306 307 306 307 306 304 304 305 303 304 305 307 306 306 310 312 306 308 308 309 310 311 311 311 311 311 312 312 313 313 312 311 310 311 310
269 269 268 268 268 267 268 268 268 268 268 268 269 269 269 269 270 270 270 270 271 272 273 275 277 278 279 282 286 288 288 288 288 289 290 290 291 291 292 292 294 296 301 305 304 303 303 302 301 300 303 302 300 302 304 305 303 300 300 299 301 301 301 301 304 309 309 311 311 310 307 308 307 309 310 311 311 311 312 312 311 309 307 307 308
267 267 267 266 267 267 267 267 267 267 267 268 268 268 269 269 269 269 269 270 271 272 273 274 276 278 279 282 284 286 288 288 288 288 289 290 291 291 291 292 293 295 301 303 302 302 301 300 300 301 301 301 302 300 302 304 303 303 300 298 298 298 302 304 302 304 308 310 309 308 309 309 307 307 307 308 310 310 310 311 309 308 305 305 307
265 265 265 265 265 266 266 266 266 267 267 267 267 268 268 268 268 269 269 269 270 271 272 275 277 279 280 283 284 285 287 288 288 288 289 288 289 288 289 290 291 294 300 300 301 301 300 299 299 300 300 299 299 301 301 302 300 300 301 301 298 297 299 300 303 303 305 307 308 308 306 306 305 306 306 306 307 309 308 307 306 305 303 305 306
264 264 264 264 264 264 265 266 266 266 267 267 267 268 267 268 268 268 269 269 270 271 272 274 277 279 280 281 283 285 287 287 288 288 288 287 286 285 286 288 288 292 299 299 301 300 299 298 298 299 298 298 298 297 298 299 299 299 300 302 300 300 300 299 295 296 301 304 304 304 304 305 306 307 307 308 308 306 306 304 304 301 302 305 306
263 263 263 264 264 264 264 265 266 266 267 267 269 272 273 270 270 270 270 270 271 272 273 275 277 279 280 282 284 285 286 286 287 287 287 287 287 287 287 287 287 289 296 297 299 299 298 297 296 296 295 295 296 298 298 300 302 302 301 301 299 296 298 298 295 291 296 302 300 300 300 297 305 304 305 307 305 305 306 306 307 304 303 306 306
262 262 263 263 263 264 265 265 265 266 267 268 272 274 275 276 273 272 272 272 273 273 274 275 276 278 280 282 284 285 286 286 286 287 287 287 287 288 288 288 289 288 291 297 298 299 297 297 296 296 296 295 297 299 300 301 301 301 301 302 299 297 296 295 294 294 292 302 301 301 297 293 299 302 302 306 304 304 304 305 304 302 303 305 306
261 262 262 263 263 264 265 265 266 266 267 270 273 274 275 276 276 273 272 272 273 273 275 276 277 278 280 281 283 285 286 286 286 286 287 287 287 287 288 288 289 291 291 296 298 298 298 297 296 296 297 296 297 299 300 300 300 301 301 301 298 297 297 297 297 297 298 297 302 300 298 292 293 302 302 303 303 303 305 305 304 303 304 305 305
261 261 262 263 263 264 265 265 266 267 267 271 273 274 275 276 277 276 273 273 272 273 274 275 277 279 281 282 282 284 285 286 286 286 286 286 287 287 287 287 289 291 293 295 300 300 300 298 297 297 298 298 297 299 301 301 301 300 300 299 298 298 299 298 299 299 294 297 302 300 298 293 293 296 300 298 299 301 304 304 304 304 305 305 305
261 262 262 263 263 264 265 265 266 267 267 271 274 275 276 276 277 277 273 273 273 273 274 275 277 278 280 280 281 282 283 284 285 285 286 286 286 286 286 287 288 290 292 295 298 298 298 300 298 297 300 301 299 300 300 301 300 298 299 298 298 297 297 299 299 296 295 298 301 299 298 294 294 296 297 297 297 299 301 304 304 304 305 305 304
262 262 262 263 264 265 265 266 266 267 267 273 274 276 277 277 278 278 274 274 274 274 274 275 277 278 280 281 281 282 283 284 285 285 285 285 286 285 286 286 287 289 294 298 300 301 301 303 302 302 302 302 302 302 301 302 300 301 301 299 298 297 295 291 291 292 293 295 295 298 297 295 292 295 297 296 295 299 300 302 303 304 304 304 304
262 263 263 263 263 264 265 266 267 267 268 273 275 276 277 277 278 275 275 274 274 274 275 276 277 278 280 280 280 280 281 283 285 287 287 286 285 285 285 285 286 288 295 298 299 299 302 304 304 304 303 303 301 301 300 301 301 298 295 293 294 294 296 297 293 292 293 293 293 299 297 294 293 296 294 293 295 296 293 294 302 303 304 304 304
261 261 262 263 263 264 265 266 266 267 268 271 275 276 277 278 277 275 274 274 274 274 275 277 279 280 281 281 281 281 282 283 285 286 288 287 285 285 285 285 286 287 293 299 297 298 299 300 301 301 301 301 300 300 300 301 298 296 297 297 295 297 297 295 292 293 294 294 291 294 295 294 292 294 291 290 293 295 294 294 297 302 303 303 304
260 261 262 262 263 264 265 265 266 267 268 272 275 277 278 279 278 275 274 274 274 274 276 277 279 280 280 282 282 281 281 282 285 286 288 287 285 285 285 285 285 286 291 298 298 298 297 298 298 299 299 299 299 300 300 299 298 297 298 296 296 298 297 296 293 294 294 294 294 292 295 294 292 292 289 288 291 289 292 292 293 298 301 302 303
261 261 262 262 262 263 265 266 269 268 268 271 275 277 278 279 278 277 276 275 274 274 275 276 278 280 281 282 283 283 282 283 285 286 287 287 285 285 285 285 285 285 291 297 296 295 294 293 295 298 297 297 299 300 298 297 297 297 301 298 298 298 297 297 295 295 293 292 294 293 296 292 293 292 291 289 289 287 286 289 291 294 299 299 301
Wind_Speed
8 9 8 9 8 9 9 8 8 8 8 8 8 10 10 10 10 11 11 12 12 13 13 13 12 12 12 13 12 11 11 11 11 11 11 11 11 14 21 23 24 25 25 28 30 32 31 33 31 32 31 31 29 27 29 28 32 31 31 27 29 32 31 29 28 28 27 27 26 25 24 26 25 22 25 24 24 23 23 23 22 21 20 20 19
9 8 8 9 9 9 9 9 9 8 8 9 8 8 9 10 10 11 12 12 12 12 12 13 14 13 13 13 13 12 11 11 12 11 11 11 12 12 20 22 25 27 28 27 27 31 34 31 33 30 28 29 31 28 27 31 31 27 29 28 31 30 29 27 28 28 27 26 26 24 24 26 24 23 24 24 24 24 23 23 22 21 21 19 19
9 10 8 9 9 9 9 9 9 9 8 8 8 9 8 9 10 10 11 12 12 12 12 13 14 14 13 13 13 11 11 11 11 11 12 11 11 12 14 22 24 26 27 28 28 30 34 30 30 35 31 30 30 30 29 31 31 30 33 32 30 31 29 28 28 29 28 27 26 25 25 26 23 22 23 24 24 24 24 23 22 22 21 20 19
9 9 9 10 9 9 9 9 10 10 9 9 9 9 9 9 9 9 10 10 11 11 11 12 13 13 13 14 12 12 12 11 12 12 12 12 12 12 12 14 21 24 26 29 29 31 29 30 31 31 28 28 31 33 30 31 28 32 32 33 32 31 31 30 27 29 29 27 27 26 26 25 24 23 25 25 25 23 23 23 23 23 22 21 21
9 10 11 10 11 11 10 9 9 9 10 12 12 10 9 9 9 8 9 10 11 12 11 12 12 13 13 14 14 15 14 12 12 13 13 13 12 12 12 13 14 21 24 25 29 29 30 32 31 28 29 30 32 34 29 33 32 33 34 31 35 34 33 33 31 30 29 28 27 27 26 24 23 23 25 26 24 22 22 23 23 23 23 22 21
10 10 9 10 10 10 10 10 10 10 10 10 11 10 10 10 10 9 9 9 11 11 11 13 12 12 13 14 15 15 13 13 13 13 13 13 13 13 12 12 13 13 15 23 23 26 26 29 29 26 23 25 27 30 29 34 32 33 34 34 36 35 36 33 34 33 32 29 27 28 26 25 23 23 24 24 23 23 23 23 24 24 23 22 22
10 10 10 9 11 12 12 11 11 11 10 10 10 11 11 11 9 10 10 9 9 10 11 11 12 14 13 13 13 14 13 13 13 14 14 13 13 13 13 13 13 12 13 13 17 23 22 23 25 24 24 25 26 29 29 32 38 36 38 37 32 34 32 31 33 33 34 29 25 26 26 25 24 24 24 24 24 24 23 23 23 24 24 23 23
10 10 10 11 12 12 11 12 14 13 11 11 10 11 10 12 10 8 11 11 10 11 9 12 12 13 13 12 13 14 13 12 13 14 14 12 12 14 13 13 13 13 13 12 12 15 23 22 21 21 24 26 30 27 26 30 36 35 34 34 34 36 37 36 34 32 33 28 29 28 28 27 25 26 26 24 25 24 25 24 23 24 23 23 24
12 12 11 11 10 10 10 12 13 13 14 12 11 10 10 10 12 10 8 11 11 12 11 11 12 13 13 13 13 15 16 16 15 15 13 14 14 14 14 15 15 15 13 13 13 12 19 26 23 22 21 23 25 23 24 30 34 34 34 35 35 36 34 34 34 35 31 28 29 29 29 28 28 28 28 26 25 25 25 25 24 24 24 24 23
12 12 11 10 10 10 11 11 11 12 12 14 13 12 11 11 12 11 11 10 11 11 12 11 11 12 13 14 14 13 14 16 16 14 14 15 15 15 15 14 14 14 14 13 13 13 13 19 26 26 24 21 22 24 28 28 32 37 37 37 38 38 35 35 34 32 29 30 29 27 29 29 29 29 29 28 27 26 25 27 25 25 26 24 24
12 12 12 12 11 11 12 10 10 10 12 12 15 15 13 12 13 12 11 12 10 11 11 11 12 12 13 15 14 14 14 15 14 12 13 16 16 16 13 14 14 15 14 14 13 13 14 12 12 14 17 24 24 25 27 34 29 34 35 35 33 36 37 35 34 34 32 29 27 28 29 30 30 29 29 28 29 27 27 27 26 26 26 26 25
11 11 12 12 11 11 12 13 12 12 12 15 15 14 16 15 15 14 13 13 11 9 9 10 11 12 15 16 14 14 15 15 17 18 15 15 15 13 14 14 14 14 15 14 14 14 13 13 12 13 14 20 26 26 28 28 28 32 35 34 34 35 38 37 37 32 28 28 29 29 31 34 30 29 29 28 28 29 28 29 28 28 28 26 26
11 12 12 13 12 11 12 11 11 12 10 13 15 18 18 17 15 13 14 13 12 10 8 7 10 13 11 13 14 12 13 15 18 19 18 15 14 14 14 14 14 16 15 14 14 14 14 13 13 12 13 13 18 28 30 28 27 33 38 43 44 41 39 37 39 34 32 31 31 32 34 31 30 30 30 29 29 30 30 29 30 30 28 28 27
10 10 11 11 11 10 9 12 10 10 11 13 13 16 18 17 14 13 11 12 12 10 9 6 9 9 12 13 15 13 11 12 16 20 21 17 16 16 15 16 16 15 14 13 14 15 14 13 13 13 14 14 15 15 18 21 25 32 40 46 43 43 43 40 37 38 34 34 33 33 33 32 31 32 31 29 30 29 30 30 30 29 28 29 28
9 10 9 9 10 11 11 9 10 9 10 11 10 14 14 16 16 14 13 11 12 9 9 5 10 9 8 10 13 13 12 10 10 16 22 20 18 18 17 17 19 16 13 13 13 14 14 14 14 14 14 15 15 15 15 18 20 31 36 40 41 44 44 41 38 38 36 36 34 34 33 32 32 34 30 30 30 31 30 30 29 29 29 28 28
10 11 10 12 12 13 13 10 9 9 11 14 13 13 14 14 15 15 13 14 11 11 7 7 8 7 8 5 5 5 11 9 8 10 13 20 20 19 16 16 15 15 12 14 14 14 14 14 16 14 15 15 14 14 14 14 23 27 40 39 42 41 40 42 42 41 37 37 36 36 33 33 34 32 32 32 31 31 31 31 30 28 28 26 27
9 9 9 10 11 11 11 11 11 11 11 12 11 13 13 14 16 16 15 14 15 11 10 7 9 9 9 8 8 7 8 10 10 13 11 11 14 15 15 16 15 13 12 13 14 15 14 14 14 13 13 11 11 11 11 13 15 18 33 38 37 38 40 40 39 41 41 38 35 33 34 32 34 31 31 32 32 31 31 31 29 28 27 27 27
9 10 10 9 10 11 13 14 13 10 10 11 15 14 13 15 15 16 17 16 14 13 14 9 9 9 11 11 10 9 8 5 6 9 11 12 13 13 13 15 14 12 11 12 11 10 13 14 12 13 11 10 10 9 8 9 11 14 20 29 40 35 36 43 42 40 39 37 37 36 35 33 32 32 32 33 31 30 31 30 32 30 29 29 28
11 10 11 12 12 11 11 12 11 13 11 12 13 15 15 14 13 14 15 16 14 15 15 13 6 9 10 10 9 9 9 7 7 5 13 14 10 7 12 16 15 14 15 14 12 10 8 12 13 12 11 10 10 9 9 9 10 10 23 40 40 38 32 31 37 38 37 38 38 40 36 34 32 33 33 33 31 31 31 32 29 29 30 29 29
10 11 10 12 11 11 11 10 12 13 12 11 10 13 15 14 15 16 16 14 16 16 14 12 11 9 8 9 8 8 7 8 8 8 8 14 22 16 12 11 14 14 14 13 13 12 10 9 11 12 11 11 9 10 10 11 8 9 7 30 38 36 36 32 34 34 34 34 39 38 35 34 34 34 33 31 31 32 33 31 32 30 30 29 27
8 9 12 11 11 11 13 12 12 11 12 10 10 13 17 18 18 17 14 14 13 15 16 14 11 11 6 7 7 8 8 9 9 6 8 9 14 16 18 10 9 10 10 10 11 11 12 12 11 11 10 10 11 10 10 12 14 10 12 19 24 27 27 31 32 32 31 31 33 35 35 35 36 35 34 32 32 32 31 32 33 29 29 28 28
9 7 11 10 11 11 10 13 13 12 11 11 13 13 14 15 14 14 14 16 13 14 16 14 11 11 9 8 6 6 7 7 8 8 9 11 13 14 16 14 13 11 10 11 12 12 11 10 11 12 10 9 10 11 10 12 13 17 18 23 23 23 25 27 29 30 30 29 30 31 33 34 35 35 34 33 34 33 32 32 32 31 31 31 29
10 10 9 9 11 10 12 12 13 14 14 12 13 12 13 12 15 17 17 16 14 15 17 16 15 13 10 9 9 10 9 10 9 7 8 8 10 13 14 17 18 14 13 11 11 11 11 10 10 10 13 12 10 10 11 10 12 17 33 26 28 25 23 24 26 28 29 29 30 30 30 29 30 32 32 33 35 34 33 33 32 31 31 31 29
9 11 9 9 9 10 11 13 14 13 12 12 10 12 12 16 17 17 15 15 15 14 15 17 17 14 12 9 9 9 9 10 9 8 8 10 7 12 13 15 16 13 11 12 11 11 11 11 11 11 11 12 12 13 12 11 14 22 25 32 28 30 27 25 27 28 30 30 29 28 27 27 28 29 31 34 34 34 32 33 32 31 32 29 28
11 9 11 12 10 11 11 11 12 11 12 13 12 15 14 17 18 19 16 14 13 14 14 16 16 14 12 9 9 9 10 9 9 9 8 8 8 11 14 12 16 12 10 14 11 9 11 14 13 11 11 11 13 13 13 12 11 20 23 27 33 27 29 27 28 29 28 28 28 28 27 28 26 26 28 27 32 33 33 32 31 32 31 31 29
13 12 12 11 11 13 11 14 14 14 14 14 15 15 16 18 17 15 14 13 12 14 14 17 17 18 13 9 9 9 10 9 9 8 9 8 10 12 13 13 15 17 4 11 11 12 8 9 11 13 13 12 12 14 14 15 12 21 24 23 28 26 26 28 29 29 28 28 28 27 26 25 25 25 25 28 30 31 32 32 31 30 32 30 30
11 12 13 13 14 11 13 15 13 15 14 14 14 15 18 17 15 12 14 11 13 14 14 17 18 18 16 12 10 9 10 9 9 10 9 11 11 11 10 12 16 14 11 9 13 17 14 10 11 12 14 13 13 13 15 14 17 22 22 20 20 30 25 28 28 28 29 28 26 25 25 25 26 27 27 26 28 29 33 32 32 32 31 29 28
12 13 12 11 14 13 14 13 14 14 14 13 14 12 15 16 12 13 17 12 14 14 14 16 19 19 17 14 11 11 9 9 10 10 10 10 11 11 10 11 11 14 9 11 13 14 15 13 7 10 11 14 13 13 15 17 17 23 21 16 17 20 27 27 27 28 29 27 25 24 25 25 25 26 26 27 27 25 28 28 28 26 24 24 23
12 12 13 13 11 13 13 14 13 13 14 15 16 14 14 14 12 16 18 14 12 14 13 16 17 16 14 15 12 11 10 9 10 10 10 11 11 11 11 13 12 15 13 11 14 16 15 14 11 11 15 13 14 12 15 13 17 21 15 15 18 17 25 28 27 26 27 27 26 24 25 25 26 26 27 26 24 25 25 25 25 24 23 22 22
12 11 13 14 12 14 14 13 12 13 14 14 14 15 15 12 15 14 15 13 12 11 13 13 16 16 15 13 12 11 9 10 10 11 10 10 10 11 12 12 12 14 15 13 11 12 15 16 14 14 15 16 14 13 14 17 21 20 15 15 17 17 26 26 26 26 26 26 25 24 24 24 25 24 24 24 23 25 24 24 24 24 23 23 22
11 11 13 15 13 13 11 13 13 15 14 13 14 14 14 16 16 13 12 10 12 14 12 13 14 15 14 13 12 10 8 9 9 9 10 10 10 10 11 12 13 14 17 17 11 8 14 17 13 13 17 18 16 16 14 15 23 24 18 16 16 23 27 22 26 26 26 27 25 23 23 24 24 24 24 23 23 23 23 23 22 21 21 21 20
13 15 15 13 14 14 13 13 15 16 18 18 17 17 16 15 15 14 12 12 15 15 14 14 12 15 14 12 11 10 8 8 10 10 10 11 11 11 12 12 13 15 15 17 17 12 12 16 15 15 18 17 17 17 15 13 20 24 18 17 19 24 19 16 24 24 25 26 26 23 23 24 24 24 24 23 22 22 21 20 20 19 19 20 21
14 15 16 18 16 15 17 18 17 19 18 18 16 16 16 16 15 16 17 18 17 15 14 15 14 14 15 13 12 11 9 10 10 10 10 11 11 11 12 12 13 14 14 16 19 12 9 10 14 14 16 17 15 19 19 16 16 15 16 16 17 17 17 16 17 24 26 26 25 24 24 25 24 24 23 22 21 20 18 19 20 19 20 21 22
14 19 17 19 16 19 18 18 18 19 19 18 17 16 16 16 16 14 16 18 16 14 12 13 14 14 15 14 12 11 10 12 12 12 11 11 12 12 12 12 13 14 14 16 19 13 10 6 12 12 15 21 17 17 19 18 18 14 14 14 16 18 17 15 14 16 25 25 25 26 24 25 25 23 21 21 21 20 19 19 21 20 19 21 22
17 14 18 16 21 17 20 18 19 19 18 18 16 17 17 18 18 18 16 15 15 15 14 14 13 13 15 14 12 10 9 11 10 10 10 11 11 12 13 12 13 13 15 19 15 13 16 14 15 16 14 15 18 17 19 20 20 17 17 15 16 15 16 18 15 14 23 25 26 25 24 25 24 23 21 21 21 21 20 20 21 20 20 21 22
14 19 14 20 17 20 17 20 17 18 18 17 18 17 18 18 18 19 18 16 16 18 17 13 12 12 14 14 10 9 9 10 10 10 9 10 10 11 12 12 12 14 15 18 18 14 13 15 14 16 16 16 15 18 18 19 19 15 15 13 12 15 13 15 16 14 20 26 26 25 24 24 24 23 22 21 21 22 21 21 20 21 20 21 22
19 15 19 16 19 17 17 17 19 18 18 19 19 19 18 17 18 18 18 17 17 17 17 16 14 13 13 15 13 10 9 10 9 9 9 12 11 11 11 10 10 12 15 18 17 15 17 17 13 14 16 14 14 17 17 17 15 14 13 15 15 15 14 12 13 15 21 25 24 24 23 23 22 22 22 22 22 22 22 22 22 21 21 21 22
17 19 17 18 16 19 19 18 18 18 18 18 19 19 19 18 18 18 18 18 18 18 17 17 16 13 14 15 13 11 10 10 9 9 10 12 11 11 12 10 10 12 17 19 16 15 17 19 17 12 13 14 10 12 17 19 18 14 12 10 10 10 12 10 10 12 13 14 14 16 19 20 21 21 21 23 23 22 23 22 21 22 20 21 22
20 19 20 19 18 18 19 18 19 19 19 18 18 19 18 18 18 19 19 18 18 17 17 17 17 15 14 15 16 15 13 10 10 10 9 10 9 11 10 10 10 13 17 17 16 18 16 17 17 18 16 14 17 15 15 19 20 18 18 14 13 10 12 15 13 10 12 14 16 19 16 15 18 17 20 23 24 22 22 25 21 21 21 21 22
18 19 19 19 19 18 19 18 18 18 18 18 18 18 18 18 18 18 18 18 18 18 18 17 16 14 14 13 13 13 12 11 10 10 10 9 7 8 8 8 10 15 16 15 17 18 17 16 17 17 16 15 11 13 14 15 15 13 15 18 18 15 13 12 14 15 13 15 13 12 14 15 16 18 21 21 23 25 23 22 24 22 23 22 22
16 18 19 19 20 21 20 19 19 18 17 17 14 15 16 17 17 18 18 18 19 18 17 17 16 14 13 13 13 13 14 15 17 15 13 11 9 10 11 7 10 16 14 14 17 17 16 16 15 14 14 16 15 15 15 16 18 19 15 15 14 15 14 12 7 6 10 15 13 11 11 12 12 13 13 13 15 21 21 21 18 23 23 23 23
14 15 16 18 18 19 20 19 18 16 15 14 18 27 25 18 16 15 16 17 17 17 17 16 15 14 14 12 13 20 20 20 20 19 19 18 18 13 8 8 10 12 13 13 16 17 18 17 16 15 15 14 16 19 19 19 19 16 17 15 15 11 11 11 7 3 7 12 12 13 10 7 12 11 11 13 11 15 12 13 12 14 20 24 24
15 14 17 18 18 18 19 18 18 16 15 14 25 26 27 29 22 18 17 17 17 18 18 17 16 16 13 13 13 14 15 16 16 20 21 20 18 17 16 16 16 13 13 13 15 19 18 18 16 18 19 20 19 19 21 20 15 17 19 19 18 17 16 15 13 4 5 15 15 14 10 6 9 13 11 13 12 10 11 12 18 20 22 23 24
14 14 16 17 18 17 16 17 18 17 16 22 27 27 27 28 26 19 17 16 16 17 17 17 16 14 12 11 11 10 10 11 12 12 14 16 16 16 17 17 21 25 24 19 17 18 20 19 18 19 19 20 21 19 18 19 18 19 19 17 17 19 19 19 16 18 13 11 15 15 14 4 4 11 12 11 11 11 13 17 24 24 25 25 26
14 16 16 16 17 17 17 17 17 17 17 24 26 28 27 28 29 25 17 17 16 17 18 18 16 15 11 9 9 8 9 13 11 10 10 10 12 15 16 18 22 24 27 30 27 23 21 22 22 21 22 21 21 19 20 23 22 22 18 17 17 19 20 20 16 13 10 12 15 14 14 7 5 8 12 8 9 10 12 18 25 26 27 27 26
14 16 16 17 17 16 16 17 16 16 18 23 28 28 29 29 29 26 19 18 17 18 19 18 16 16 15 11 11 10 10 11 12 12 11 10 9 10 11 10 12 19 25 28 28 28 25 20 21 21 19 21 22 22 21 23 23 22 23 22 21 20 20 18 12 12 11 12 18 15 13 10 7 9 10 7 7 10 10 17 25 25 25 24 23
16 16 15 16 16 16 17 16 16 16 17 27 27 29 29 30 29 25 18 16 15 17 18 18 18 16 13 10 11 11 11 11 11 13 11 10 10 9 10 12 12 14 16 17 20 20 22 21 23 23 20 20 22 22 19 19 24 23 24 25 22 17 11 11 10 9 9 8 7 12 15 11 5 10 11 9 7 9 8 13 22 25 26 26 26
14 15 16 15 17 17 17 17 17 18 19 28 27 29 30 28 28 16 14 14 14 16 17 17 17 16 14 13 12 12 13 13 15 20 17 11 10 12 13 12 12 14 14 17 21 22 21 22 24 24 22 22 20 21 24 22 18 13 11 12 12 13 15 15 12 10 12 8 7 14 10 10 6 12 8 5 7 8 4 5 14 21 25 27 27
16 16 16 16 15 16 18 17 18 18 19 24 28 29 29 28 22 12 13 11 13 14 16 16 15 13 12 12 12 12 11 13 17 21 19 17 12 12 11 11 11 12 13 14 18 22 26 25 26 27 28 29 29 28 27 30 21 19 18 18 18 18 18 16 11 12 13 12 7 8 9 12 8 7 7 5 7 8 7 7 7 17 23 25 26
17 16 16 15 16 15 17 18 18 18 19 24 30 29 29 27 21 13 10 10 12 13 13 15 14 13 14 22 19 14 13 14 18 22 21 16 12 12 11 10 12 12 12 12 11 13 19 23 26 27 28 28 29 31 29 25 27 24 22 22 20 18 19 19 18 17 14 14 13 9 12 13 10 5 7 3 4 0 5 5 5 10 16 18 25
15 15 15 15 15 15 15 17 25 23 18 21 28 27 28 27 20 11 9 8 11 13 12 13 13 11 11 14 22 20 16 17 24 24 24 18 11 11 10 9 11 13 13 13 14 13 9 6 9 18 19 25 26 23 22 30 32 29 26 25 21 20 20 18 16 14 12 11 14 14 16 11 16 11 12 7 6 1 0 3 5 6 9 9 11
Wind_Direction
328 328 324 326 325 326 325 321 320 316 318 315 322 320 321 322 321 318 317 313 310 305 297 280 266 257 251 248 242 236 233 232 229 230 230 232 232 228 223 226 228 227 231 228 224 223 224 227 225 224 218 214 215 218 206 204 205 203 192 183 183 180 178 178 171 171 170 168 169 170 167 164 162 166 160 156 158 160 157 156 155 159 160 161 161
325 323 325 321 323 322 321 319 318 314 311 313 314 313 313 316 315 315 314 313 309 305 304 294 277 259 248 246 241 237 234 232 230 227 228 230 232 234 228 226 226 228 227 228 228 229 227 223 227 226 223 222 215 210 205 207 207 203 195 189 188 178 179 178 174 171 169 168 168 170 165 166 164 165 162 159 159 159 155 155 155 159 163 162 161
324 323 321 320 319 320 318 317 313 312 309 304 306 306 305 304 309 311 311 310 306 305 303 298 290 272 257 248 243 238 235 232 232 228 227 228 231 233 232 229 228 226 226 226 227 231 228 223 224 224 221 222 221 218 213 209 204 204 198 189 180 179 178 178 177 170 170 168 168 168 164 165 165 162 158 159 162 160 156 156 157 160 164 162 165
322 323 321 321 318 317 314 313 309 309 307 303 304 302 301 296 296 300 302 302 302 302 301 297 293 283 265 252 247 242 236 233 231 228 227 228 228 230 231 231 230 228 226 224 222 224 226 225 226 223 222 225 224 222 215 208 204 203 204 194 187 180 182 177 174 173 170 169 167 164 164 164 165 160 159 161 163 160 159 160 162 161 163 163 167
327 326 325 321 319 316 314 308 306 301 302 304 302 300 298 298 295 296 299 302 301 303 302 296 293 291 278 260 249 241 236 231 230 227 226 226 227 228 227 230 230 227 229 230 224 224 222 227 227 224 222 221 223 223 220 219 212 203 200 197 188 181 180 178 176 173 171 169 167 163 163 165 166 161 160 164 164 162 161 164 162 163 166 165 167
334 329 325 319 316 313 312 310 306 306 299 300 301 302 297 296 297 299 297 300 302 302 304 301 298 295 289 276 260 247 238 233 229 227 225 225 225 226 227 226 228 226 225 230 230 228 220 221 230 226 221 222 225 222 213 216 212 209 201 196 189 180 182 179 176 174 172 168 166 164 163 163 165 163 163 164 162 161 162 164 163 164 166 167 168
335 330 327 331 331 328 323 319 314 305 302 299 296 296 297 291 295 297 296 294 294 296 297 295 298 298 296 292 276 258 243 232 231 230 227 225 224 225 225 225 226 226 225 225 227 230 231 225 222 224 222 222 225 224 219 216 212 201 200 197 186 184 181 180 177 173 172 165 163 163 160 162 163 165 166 164 163 165 163 165 166 167 167 170 171
337 338 337 335 329 323 320 317 318 313 305 298 295 293 291 293 288 287 296 295 295 295 296 295 295 294 293 293 288 268 254 245 238 233 229 227 224 225 223 224 225 224 223 225 226 224 227 229 227 224 225 227 224 221 221 216 212 200 202 188 189 185 182 180 176 173 168 166 169 165 161 162 165 167 167 163 163 166 166 163 165 168 168 170 169
342 340 333 327 321 317 317 321 319 315 310 305 295 289 287 285 290 287 278 290 293 293 294 293 294 292 293 289 287 285 259 243 236 231 227 225 225 222 222 224 224 224 224 225 224 225 220 224 225 226 224 223 222 217 216 224 215 208 202 198 194 188 179 175 173 172 170 169 168 166 163 163 167 169 167 164 164 168 168 166 167 169 170 168 167
337 332 326 322 319 316 314 314 315 315 312 307 300 293 285 281 281 284 285 281 286 291 294 294 292 292 291 288 286 284 279 258 239 227 223 223 222 220 219 221 221 222 222 223 225 224 223 221 220 221 225 221 222 220 220 221 221 207 202 201 192 188 179 174 174 170 170 169 167 164 163 165 167 171 171 168 167 170 166 169 170 167 167 166 168
335 332 330 326 319 315 312 315 317 311 310 306 303 297 289 281 276 277 280 279 275 282 287 291 290 288 285 285 285 281 279 273 256 236 223 223 222 221 219 219 219 220 220 220 221 221 220 217 216 218 221 219 218 221 219 219 221 216 206 199 195 187 178 173 172 171 172 167 165 166 165 164 168 169 168 169 169 169 169 170 170 170 168 166 169
333 331 325 322 319 317 319 321 315 310 305 304 302 300 297 291 282 280 277 280 277 272 281 288 287 283 285 283 277 275 273 266 257 242 230 225 223 220 221 219 218 220 219 217 217 220 218 214 211 213 215 217 215 217 219 219 215 218 205 204 200 184 174 172 174 167 162 164 164 165 166 167 166 168 170 168 169 172 171 171 172 170 166 167 167
330 328 323 319 314 310 309 309 306 303 299 298 299 298 295 290 286 279 277 275 278 278 271 283 291 291 285 277 283 275 272 276 264 244 232 224 221 219 218 219 219 218 218 216 217 219 220 214 212 213 212 214 217 219 219 217 215 214 208 204 199 188 177 173 172 164 165 162 163 168 168 166 167 169 170 169 172 173 172 173 171 167 168 168 167
323 320 314 307 306 305 303 302 303 296 292 291 292 291 290 285 281 279 268 269 270 273 276 291 280 281 304 310 297 285 264 265 264 246 231 223 218 217 215 216 217 218 215 215 217 219 220 217 213 213 215 215 214 213 218 220 219 220 213 202 192 185 176 172 170 167 164 163 161 164 166 168 170 169 169 170 174 174 174 172 170 170 169 168 167
315 315 311 307 305 305 302 299 295 296 297 293 293 294 291 286 281 277 279 267 268 264 269 227 272 276 277 294 289 306 306 299 282 252 229 219 212 214 215 216 217 213 214 213 216 216 216 216 214 211 211 214 214 212 211 212 216 214 217 197 183 180 175 171 168 165 162 164 166 165 165 167 170 169 168 172 175 174 173 174 172 170 168 169 168
319 319 315 313 311 307 304 299 299 308 308 302 298 289 287 283 280 275 272 276 268 268 248 240 231 267 282 225 299 334 302 287 307 297 249 221 209 210 210 215 218 216 215 215 216 212 212 209 209 206 206 208 209 209 209 211 212 211 208 198 182 177 171 171 167 164 161 162 164 166 164 165 170 170 172 176 177 175 175 175 171 168 168 168 167
308 304 302 300 299 296 303 308 310 305 299 293 290 288 285 282 280 277 271 269 270 271 267 236 236 211 238 280 285 258 237 274 357 299 301 266 223 211 206 210 210 210 211 219 215 211 206 202 202 197 193 188 192 193 199 207 208 205 199 185 173 169 166 166 169 162 164 163 164 164 165 167 170 172 175 178 177 175 174 173 171 170 170 171 168
308 306 300 295 298 304 305 303 301 298 296 295 297 295 298 305 307 302 280 260 263 269 272 251 227 222 215 224 225 260 292 319 355 291 309 304 284 217 206 207 203 198 207 208 206 208 198 191 189 188 182 178 177 174 164 177 199 193 185 173 165 164 168 161 163 163 161 161 166 165 164 166 169 173 177 177 176 175 175 174 172 172 173 173 172
310 308 306 303 300 297 295 295 297 298 297 293 291 292 294 293 296 293 295 293 271 263 261 267 237 231 220 221 224 232 241 265 257 297 306 306 297 289 213 198 198 197 197 194 190 184 192 185 179 176 174 169 170 165 156 149 160 189 201 165 161 160 163 162 159 160 162 163 164 165 165 169 172 175 176 176 175 176 176 173 173 172 173 174 175
304 307 303 301 300 298 298 294 295 291 289 285 287 292 292 289 289 288 289 286 282 266 262 258 250 251 210 219 222 229 236 241 244 241 261 282 295 298 284 222 188 196 192 184 179 179 176 180 175 170 167 168 167 163 159 149 135 138 152 151 151 155 157 159 157 159 162 163 164 164 166 171 175 176 174 175 177 176 176 176 173 173 172 176 174
295 299 298 294 295 296 299 296 292 287 285 283 285 290 290 290 288 288 285 286 286 283 268 254 248 249 211 225 212 228 234 234 241 230 238 265 276 282 289 254 217 193 194 186 180 180 176 177 176 169 167 169 163 161 160 155 146 138 146 134 139 148 156 156 155 158 159 163 163 164 169 173 175 176 174 174 177 178 177 175 173 171 173 174 173
300 290 293 289 290 290 290 293 292 289 286 284 289 288 287 283 281 277 279 281 285 283 279 270 254 248 217 216 212 228 241 244 228 225 233 223 252 272 273 266 225 209 193 190 185 173 179 180 176 168 166 169 164 161 166 167 157 147 152 147 145 154 158 153 155 156 160 164 160 164 169 174 173 175 176 175 176 179 176 174 173 173 174 174 175
300 297 287 286 287 287 292 292 293 292 290 287 283 285 285 286 288 281 275 276 280 284 285 278 265 251 226 215 223 222 227 236 236 219 229 238 251 261 270 264 232 204 204 192 185 178 169 175 175 181 167 165 167 164 163 170 160 161 149 155 152 154 159 159 157 157 157 160 162 165 170 174 175 175 176 176 176 176 175 175 175 174 174 175 177
293 296 292 290 287 286 287 292 290 287 284 283 280 284 288 290 285 279 275 276 278 280 281 277 264 252 239 222 222 220 224 234 239 232 221 243 234 263 268 283 265 222 188 189 186 180 176 176 178 175 175 166 167 164 164 164 167 166 155 153 156 156 163 162 160 161 160 162 162 165 170 174 175 176 176 177 177 175 176 175 177 176 175 177 177
298 296 294 295 293 290 292 289 288 284 285 288 290 288 287 283 276 271 270 274 280 284 285 281 273 251 243 225 222 216 224 226 235 233 228 235 233 257 263 262 278 260 201 180 185 194 182 177 175 174 172 170 163 165 162 166 168 168 163 156 155 160 160 163 162 163 163 162 162 169 174 174 174 174 179 178 176 176 174 176 178 176 176 178 179
296 294 298 296 290 288 285 285 283 284 285 285 284 284 282 276 273 276 281 285 285 281 279 279 272 258 245 234 220 218 222 221 226 228 232 228 234 237 256 268 266 264 233 184 174 169 193 191 180 172 169 167 168 164 164 161 161 170 167 158 153 158 163 162 164 164 162 164 168 173 173 172 172 173 179 180 179 176 175 176 178 177 178 181 180
290 292 295 293 289 285 284 284 284 283 282 281 282 283 282 281 285 291 290 284 278 278 279 283 276 259 247 236 231 221 221 219 218 229 226 229 233 235 234 257 273 263 229 183 173 187 172 181 178 176 171 164 164 166 163 162 160 170 165 154 154 158 165 165 166 165 163 165 171 171 171 174 174 176 181 182 179 178 176 178 179 180 180 180 180
288 290 287 285 288 288 286 279 282 283 282 280 280 278 278 280 285 285 283 274 275 280 281 282 280 263 245 238 232 228 219 218 224 227 227 226 229 232 227 236 253 274 256 193 179 186 175 167 166 177 171 165 163 164 157 154 157 166 164 155 154 160 165 168 167 166 164 166 171 171 173 175 175 178 179 180 183 181 177 178 179 178 180 180 179
287 289 289 286 283 283 284 285 285 284 282 280 277 274 276 280 279 280 273 271 273 277 280 279 279 268 244 237 230 231 220 221 225 228 226 227 227 229 224 229 234 251 268 214 186 171 178 169 166 176 172 168 161 165 155 154 160 161 164 160 156 159 167 167 169 167 167 168 171 175 176 175 176 179 180 181 180 175 178 176 177 180 179 178 179
287 288 288 288 286 285 284 283 282 281 280 279 277 276 275 270 269 266 267 271 270 270 270 274 278 272 248 237 232 234 222 222 225 223 225 225 227 226 230 227 229 244 259 250 208 179 167 175 176 170 174 166 161 160 162 155 161 161 162 160 158 161 166 170 170 169 169 170 171 176 177 175 175 177 180 179 178 178 179 177 178 178 179 180 179
287 288 290 290 287 284 278 280 282 282 279 273 276 276 272 272 268 262 261 262 265 268 270 273 278 273 248 237 235 234 224 226 226 227 230 232 234 235 235 231 231 238 245 264 230 212 172 170 176 174 168 168 163 159 163 162 162 164 163 164 165 163 164 169 171 170 170 170 171 175 175 174 175 177 179 180 178 179 179 178 178 178 179 178 174
292 291 288 285 284 283 285 285 288 289 286 285 280 278 278 280 284 284 282 278 273 271 273 273 273 273 259 241 236 235 229 233 236 233 235 233 236 237 236 233 232 233 245 253 249 199 189 173 167 168 169 163 162 160 160 160 165 168 162 166 166 159 162 167 171 172 172 171 171 172 174 174 175 176 179 179 179 178 179 177 177 174 172 169 167
294 291 293 294 289 288 291 290 290 290 287 283 281 280 279 277 277 280 283 279 275 271 266 270 276 276 265 245 237 233 228 228 232 232 233 235 237 239 237 235 234 236 237 246 248 211 186 176 157 163 165 158 164 162 156 158 164 172 167 162 159 162 163 167 172 174 172 172 172 171 174 175 175 175 175 177 178 177 174 174 172 170 166 165 166
296 297 294 297 292 294 290 289 288 287 282 281 279 279 276 278 278 280 276 268 262 265 274 278 280 284 277 251 242 240 231 234 233 237 235 238 235 240 239 235 236 239 234 240 241 197 168 136 153 158 164 164 161 166 155 158 165 165 163 163 165 167 165 165 167 176 174 172 171 171 175 176 176 174 171 173 175 176 171 169 169 168 169 168 168
296 295 296 294 295 292 291 287 288 285 281 280 279 278 276 276 276 275 275 287 290 283 276 274 277 281 284 264 242 236 238 242 240 238 234 234 236 241 244 238 241 242 241 237 227 194 166 162 156 157 163 173 161 166 162 163 164 162 160 164 168 170 165 163 168 172 176 172 172 171 174 177 177 173 170 171 172 173 171 168 169 169 173 174 170
299 298 297 297 295 294 290 288 284 285 283 282 280 277 274 273 274 275 277 279 281 281 279 269 267 275 279 284 261 241 238 244 246 250 248 247 240 244 246 244 244 249 244 237 215 184 170 152 170 161 166 165 167 165 164 158 159 161 160 156 162 164 163 164 166 168 176 174 172 171 174 177 175 171 170 171 171 171 172 171 169 169 175 174 168
300 301 298 298 294 293 291 289 287 287 286 284 282 279 276 274 273 274 273 274 272 271 272 275 273 271 276 274 273 255 244 245 246 248 247 246 244 247 250 251 252 254 250 229 205 189 165 160 162 169 165 166 162 160 155 153 158 158 156 156 163 165 162 165 164 168 171 174 172 172 175 175 173 169 169 170 171 171 172 172 172 170 172 170 164
303 300 299 296 295 292 290 289 287 286 284 281 278 277 275 273 271 270 270 268 268 266 266 268 270 263 266 274 276 266 252 246 247 247 247 247 247 246 250 253 257 260 250 219 192 180 169 161 161 160 163 154 150 159 161 155 155 150 144 146 145 147 146 147 166 165 167 173 177 177 175 173 172 168 170 172 171 172 170 173 176 170 170 166 162
301 301 299 296 292 291 289 287 284 283 281 279 277 275 274 272 271 269 268 267 265 265 263 260 256 255 255 254 257 254 246 242 247 250 253 258 254 256 255 263 268 269 245 207 183 170 169 162 162 164 162 163 159 160 169 160 159 159 152 147 153 160 164 162 163 170 168 172 180 177 174 173 174 172 170 171 172 172 171 170 179 171 167 165 162
301 299 298 297 294 290 289 285 282 280 276 276 274 272 269 268 268 267 266 268 266 264 263 258 254 251 253 259 269 272 268 260 254 252 253 261 276 283 283 289 286 273 235 197 176 168 164 163 164 167 165 159 163 154 151 157 154 157 163 159 160 162 164 167 170 166 173 169 173 176 177 173 176 173 169 168 170 172 172 169 169 170 166 166 164
297 297 296 294 292 290 285 282 280 275 273 271 271 268 265 263 262 264 264 264 265 264 260 258 255 250 248 247 248 250 249 250 249 251 250 251 261 268 275 281 284 278 231 194 174 164 158 162 164 164 163 160 157 152 156 160 166 167 168 162 161 162 156 150 155 167 169 165 165 165 175 182 178 176 174 172 173 168 169 166 168 168 168 168 166
289 288 288 288 285 285 285 283 279 275 271 269 268 267 265 262 260 261 260 261 263 265 265 263 258 254 250 247 246 247 248 249 250 248 251 255 255 251 262 282 276 283 239 197 175 162 158 163 161 157 157 163 161 161 163 172 172 160 156 156 151 145 146 154 140 166 167 149 153 167 181 183 174 172 174 171 174 166 163 163 168 169 172 169 168
290 290 292 291 288 286 285 283 282 277 271 268 269 268 268 267 266 266 264 264 261 260 260 260 259 256 248 246 247 247 247 249 250 251 252 254 254 257 263 266 270 267 271 212 181 161 162 163 163 162 165 165 170 171 169 166 162 159 163 166 159 157 159 158 171 184 255 167 164 167 182 200 179 171 179 174 169 168 158 164 162 167 173 172 170
292 292 290 290 291 290 286 282 280 277 274 270 272 273 271 269 268 266 265 265 266 267 265 260 259 258 254 250 249 247 242 241 245 248 248 251 256 264 270 274 280 279 269 248 185 169 163 162 166 171 166 171 171 172 168 159 163 169 169 160 158 163 167 175 173 178 185 177 162 168 178 183 197 174 172 179 169 167 167 164 166 170 175 177 176
294 293 295 295 293 289 283 282 279 278 277 274 275 273 273 273 270 266 265 264 264 263 264 264 260 257 245 238 248 244 251 254 251 253 258 262 263 262 272 281 283 279 277 250 204 172 166 163 169 174 174 167 170 176 169 167 165 164 162 164 169 175 174 175 178 167 149 172 159 168 176 187 172 167 175 173 163 164 171 170 171 175 179 180 177
295 295 295 293 291 286 283 280 278 276 276 277 276 274 272 272 271 268 264 263 262 262 261 260 258 257 255 256 255 254 249 250 251 255 254 257 266 277 279 284 285 289 280 241 203 174 166 167 168 173 178 167 171 175 176 165 162 165 168 175 175 175 175 176 159 146 154 170 172 166 170 173 183 161 178 180 168 169 175 183 178 177 176 176 177
305 308 309 308 305 299 294 284 275 275 277 278 279 277 277 276 272 269 264 260 260 259 256 256 258 259 258 258 260 264 261 251 247 247 252 255 262 266 277 280 285 287 270 228 197 181 171 169 173 173 171 177 173 168 165 170 168 173 177 173 168 162 129 80 67 103 136 174 154 153 177 173 179 171 178 163 172 180 180 189 184 177 175 175 178
313 311 309 307 306 304 300 297 291 280 279 281 284 285 284 281 274 268 264 259 260 263 260 253 247 249 249 248 249 250 253 258 255 254 253 257 257 266 271 278 287 289 265 221 204 184 180 174 173 172 171 174 171 167 167 170 171 150 107 82 97 115 133 151 150 149 156 182 176 172 161 165 182 178 162 148 153 169 175 180 194 185 179 178 180
317 315 313 309 308 306 303 296 293 292 284 282 286 289 288 281 275 265 260 254 258 257 260 261 257 246 235 232 237 246 248 252 256 255 251 245 251 255 264 277 284 289 266 221 213 196 183 179 174 170 171 168 164 167 172 163 149 138 135 142 158 161 161 159 150 156 171 170 202 174 148 160 171 160 132 148 164 167 175 192 192 197 188 182 181
317 316 314 310 308 306 302 299 295 295 291 286 290 295 295 292 281 260 239 243 248 256 258 257 256 255 253 253 251 247 249 252 257 255 249 241 245 252 261 272 283 286 263 211 195 201 195 180 173 170 167 166 164 166 165 156 148 150 153 163 167 165 169 170 170 175 165 173 182 160 145 171 155 149 123 93 79 63 193 186 191 199 196 188 185
311 313 313 309 306 303 300 298 299 300 297 297 298 301 301 296 289 263 249 227 247 251 254 260 258 249 243 243 248 249 248 251 253 253 247 240 240 247 255 265 272 274 262 205 188 185 184 185 187 167 167 167 166 165 163 158 160 164 166 168 164 168 174 177 171 157 150 196 190 173 161 163 157 169 143 120 167 231 12 195 189 185 181 179 186